Content
SEND FEEDBACK

Daily
Averages
Monthly
Summary
United Kingdom

CHRISTCHURCH, ENGLAND


Home > Europe > United Kingdom > England
Elevation: 30 feet     Latitude: 50 44N     Longitude: 001 44W

WEATHER
 
SELECT A DAY
Number of Records: 255,067;   Date Range: 7/1/96 - 9/19/14
 
SHARE

PRINT THIS DATA

[ ← Previous Day ]
WEATHER ALMANAC - DECEMBER 17, 2013
[ Next Day → ]
[ °C ]   °F
Weather ElementAverageHighLow
Temperature42.3 °F44 °F (1:00 am)40 °F (8:00 am)
Dewpoint41.4 °F42.8 °F (1:50 am)39.2 °F (6:50 am)
Humidity96 %100 % (1:50 am)89 % (4:00 pm)
Barometer30.15 in30.27 in (9:20 am)30.01 in (8:50 pm)
Wind Speed4.8 mph8.1 mph (10:50 pm)
Weather ElementAverage
Visibility7.9 mi
Wind DirectionESE (102 °)

Weather ElementTotal
Precipitation---
Heating Degree Days23 (Base 65)
Averaged from 65 records on December 17, 2013
WEATHER CONDITIONS BREAKOUT
WIND DIRECTION BREAKOUT
WEATHER BY HOUR - DECEMBER 17, 2013
[ °C ]   °F
Local TimeTemperatureDewpointHumidityBarometerVisibilityWind DirectionWind SpeedGust SpeedPrecipitationEventsConditions
1:00 AM44.0 °F42.0 °F91 %30.15 in11.0 miNorth (350°)5.8 mphRainRain
1:50 AM42.8 °F42.8 °F100 %30.15 in6.2 miNNW (340°)4.6 mphRainLight Rain
2:00 AM43.0 °F42.0 °F96 %30.18 in6.0 miNNW (340°)4.6 mphRainRain
2:20 AM42.8 °F42.8 °F100 %30.18 in6.2 miNorth (10°)4.6 mphRainLight Rain
2:50 AM42.8 °F41.0 °F93 %30.18 in6.2 miNorth (10°)6.9 mphRainLight Rain
3:00 AM43.0 °F42.0 °F93 %30.20 in11.0 miNorth (10°)6.9 mphRainRain
3:20 AM42.8 °F41.0 °F93 %30.18 in6.2 miNNE (20°)5.8 mphRainLight Rain
3:50 AM42.8 °F41.0 °F93 %30.18 in6.2 miNorth (10°)5.8 mphRainLight Rain
4:00 AM43.0 °F42.0 °F92 %30.20 in22.0 miNorth (10°)5.8 mphRainLight Rain
4:50 AM41.0 °F41.0 °F100 %30.21 in6.2 miNE (40°)4.6 mphRainLight Rain
5:00 AM42.0 °F40.0 °F90 %30.22 in14.0 miNE (40°)4.6 mphRainLight Rain
5:20 AM41.0 °F41.0 °F100 %30.21 in6.2 miNE (50°)2.3 mphRainLight Rain
5:50 AM41.0 °F41.0 °F100 %30.21 in6.2 miSE (130°)3.5 mphPartly Cloudy
6:00 AM42.0 °F40.0 °F92 %30.21 in31.0 miSE (130°)3.5 mphRainRain
6:20 AM41.0 °F41.0 °F100 %30.21 inSSE (160°)4.6 mphClear
6:50 AM41.0 °F39.2 °F93 %30.21 in6.2 miNorth (350°)3.5 mphPartly Cloudy
7:00 AM41.0 °F40.0 °F92 %30.23 in31.0 miNorth (350°)3.5 mphOvercast
7:20 AM41.0 °F39.2 °F93 %30.21 in6.2 miNorth (10°)1.2 mphPartly Cloudy
7:50 AM41.0 °F39.2 °F93 %30.21 in6.2 miEast (80°)1.2 mphPartly Cloudy
8:00 AM40.0 °F40.0 °F98 %30.24 in18.0 miEast (80°)1.2 mphOvercast
8:20 AM41.0 °F39.2 °F93 %30.24 in6.2 miNorth (10°)3.5 mphPartly Cloudy
8:50 AM41.0 °F41.0 °F100 %30.24 in6.2 miENE (60°)4.6 mphPartly Cloudy
9:00 AM41.0 °F40.0 °F96 %30.26 in11.0 miENE (60°)4.6 mphScattered Clouds
9:20 AM41.0 °F41.0 °F100 %30.27 in6.2 miNE (40°)3.5 mphPartly Cloudy
9:50 AM41.0 °F41.0 °F100 %30.27 in6.2 miNNE (20°)4.6 mphPartly Cloudy
10:00 AM41.0 °F41.0 °F98 %30.27 in22.0 miNNE (20°)4.6 mphOvercast
10:20 AM41.0 °F41.0 °F100 %30.24 in6.2 miVariable3.5 mphPartly Cloudy
10:50 AM42.8 °F41.0 °F93 %30.24 in6.2 miVariable4.6 mphPartly Cloudy
11:00 AM42.0 °F41.0 °F93 %30.26 in18.0 miNE (50°)4.6 mphScattered Clouds
11:20 AM42.8 °F41.0 °F93 %30.21 in6.2 miNE (50°)5.8 mphPartly Cloudy
11:50 AM42.8 °F41.0 °F93 %30.21 in6.2 miNE (50°)5.8 mphPartly Cloudy
12:00 PM43.0 °F41.0 °F91 %30.23 in22.0 miNE (50°)5.8 mphMostly Cloudy
12:20 PM42.8 °F41.0 °F93 %30.21 in6.2 miNE (40°)6.9 mphPartly Cloudy
12:50 PM42.8 °F41.0 °F93 %30.18 in6.2 miEast (80°)6.9 mphPartly Cloudy
1:00 PM43.0 °F42.0 °F92 %30.19 in11.0 miEast (80°)5.8 mphScattered Clouds
1:20 PM42.8 °F41.0 °F93 %30.18 in6.2 miENE (60°)4.6 mphPartly Cloudy
1:50 PM42.8 °F42.8 °F100 %30.15 in6.2 miENE (60°)5.8 mphPartly Cloudy
2:00 PM43.0 °F42.0 °F94 %30.17 in14.0 miENE (70°)5.8 mphScattered Clouds
2:20 PM42.8 °F42.8 °F100 %30.15 in6.2 miNE (50°)4.6 mphScattered Clouds
2:50 PM42.8 °F42.8 °F100 %30.15 in6.2 miNE (50°)5.8 mphMostly Cloudy
3:00 PM43.0 °F42.0 °F93 %30.15 in11.0 miNE (50°)5.8 mphScattered Clouds
3:20 PM42.8 °F41.0 °F93 %30.12 in6.2 miEast (90°)5.8 mphScattered Clouds
3:50 PM42.8 °F41.0 °F93 %30.12 in6.2 miNE (50°)4.6 mphMostly Cloudy
4:00 PM43.0 °F41.0 °F89 %30.14 in25.0 miNE (50°)4.6 mphScattered Clouds
4:20 PM42.8 °F41.0 °F93 %30.09 in2.8 miENE (70°)5.8 mphLight Drizzle
4:50 PM42.8 °F41.0 °F93 %30.09 in5.0 miNE (40°)4.6 mphMostly Cloudy
5:00 PM42.0 °F41.0 °F96 %30.12 in7.0 miNE (40°)4.6 mphRainRain
5:50 PM42.8 °F41.0 °F93 %30.09 in6.2 miNE (40°)5.8 mphLight Drizzle
6:00 PM42.0 °F41.0 °F95 %30.09 in7.0 miNE (40°)5.8 mphRainDrizzle
6:20 PM42.8 °F41.0 °F93 %30.06 in3.7 miNE (40°)5.8 mphLight Drizzle
6:50 PM42.8 °F41.0 °F93 %30.06 in1.6 miNorth (10°)4.6 mphLight Drizzle
7:00 PM42.0 °F42.0 °F98 %30.07 in2.0 miNorth4.6 mphRainLight Drizzle
7:20 PM42.8 °F42.8 °F100 %30.06 in1.3 miNNE (20°)3.5 mphLight Drizzle
7:50 PM42.8 °F42.8 °F100 %30.04 in1.9 miNNE (20°)4.6 mphLight Drizzle
8:00 PM42.0 °F42.0 °F99 %30.05 in2.0 miNNE (20°)4.6 mphRainLight Drizzle
8:20 PM42.8 °F42.8 °F100 %30.04 in2.2 miNorth (360°)4.6 mphLight Drizzle
8:50 PM42.8 °F42.8 °F100 %30.01 in1.9 miNNE (20°)2.3 mphLight Drizzle
9:00 PM42.0 °F42.0 °F99 %30.03 in2.0 miNNE (20°)5.8 mphRainLight Rain
9:20 PM42.8 °F42.8 °F100 %30.01 in2.2 miNorth (350°)4.6 mphLight Drizzle
9:50 PM42.8 °F42.8 °F100 %30.01 in1.9 miNNW (330°)5.8 mphRainLight Rain
10:00 PM42.0 °F42.0 °F100 %30.03 in2.0 miNNW (330°)5.8 mphRainLight Rain Showers
10:20 PM42.8 °F42.8 °F100 %30.01 in1.9 miNW (310°)4.6 mphLight Drizzle
10:50 PM42.8 °F42.8 °F100 %30.04 in1.7 miWNW (290°)8.1 mphLight Drizzle
11:00 PM42.0 °F42.0 °F100 %30.04 in1.0 miWNW (290°)8.1 mphRainRain
11:20 PM42.8 °F42.8 °F100 %30.01 in1.7 miNNW (330°)3.5 mphLight Drizzle
Hourly data recorded from EGHH, located miles away from Christchurch, England







STORIES FROM OUR PARTNERS